CW7802 Weather Reports


Display with metric or nautical units.
time (UTC)temp
F
wind
direction
speed
MPH
gust
MPH
rain 1hr
in
rain 24hr
in
rain mn
in
humidity
%
barometer
mb
20210803133041 71 110 1.0 3.0 0.00 0.00 0.00 16 867.5
20210803130050 71 110 1.0 3.0 0.00 0.00 0.00 16 867.3
20210803124550 71 110 2.0 3.0 0.00 0.00 0.00 16 867.2
20210803123028 71 110 1.0 3.0 0.00 0.00 0.00 16 867.0
20210803120055 71 110 1.0 3.0 0.00 0.00 0.00 16 866.9
20210803114528 71 110 1.0 2.0 0.00 0.00 0.00 16 866.9
20210803113022 71 110 1.0 3.0 0.00 0.00 0.00 15 866.9
20210803110048 71 110 1.0 3.0 0.00 0.00 0.00 16 866.8
20210803104535 71 110 2.0 3.0 0.00 0.00 0.00 15 866.8
20210803103021 71 110 1.0 3.0 0.00 0.00 0.00 15 866.8
20210803100014 71 110 2.0 3.0 0.00 0.00 0.00 16 866.8
20210803094516 71 110 2.0 3.0 0.00 0.00 0.00 15 866.9
20210803093012 71 110 1.0 3.0 0.00 0.00 0.00 15 867.0
20210803090009 71 110 1.0 3.0 0.00 0.00 0.00 15 867.2
20210803084518 72 110 1.0 3.0 0.00 0.00 0.00 15 867.2
20210803083022 71 110 1.0 3.0 0.00 0.00 0.00 15 867.3
20210803080023 72 110 1.0 3.0 0.00 0.00 0.00 15 867.5
20210803074528 72 110 1.0 3.0 0.00 0.00 0.00 14 867.6
20210803073005 72 110 1.0 3.0 0.00 0.00 0.00 14 867.7
20210803070021 72 110 0.0 3.0 0.00 0.00 0.00 14 867.9
20210803064508 73 110 1.0 2.0 0.00 0.00 0.00 14 867.8
20210803063008 73 110 1.0 3.0 0.00 0.00 0.00 13 867.9
20210803061505 73 110 1.0 2.0 0.00 0.00 0.00 13 867.8
20210803060002 73 110 1.0 3.0 0.00 0.00 0.00 13 867.9
20210803053020 72 113 1.0 2.0 0.00 0.00 0.00 10 868.1
20210803051521 72 113 1.0 3.0 0.00 0.00 0.00 11 868.2
20210803050017 72 150 0.0 2.0 0.00 0.00 0.00 11 868.2
20210803043017 72 150 1.0 3.0 0.00 0.00 0.00 12 868.2
20210803041514 73 150 1.0 3.0 0.00 0.00 0.00 13 868.1
20210803040043 73 149 1.0 2.0 0.00 0.00 0.00 14 868.1
20210803033123 74 155 1.0 2.0 0.00 0.00 0.00 15 867.9
20210803031715 76 155 0.0 3.0 0.00 0.00 0.00 16 867.9
20210803030140 78 155 0.0 3.0 0.00 0.00 0.00 16 867.8
20210803023131 83 294 0.0 1.0 0.00 0.00 0.00 14 867.8
20210803021702 84 294 0.0 3.0 0.00 0.00 0.00 12 867.8
20210803020140 85 297 0.0 4.0 0.00 0.00 0.00 12 867.7
20210803013223 87 292 0.0 7.0 0.00 0.00 0.00 10 867.8
20210803011617 88 300 2.0 7.0 0.00 0.00 0.00 10 867.8
20210803010142 87 291 2.0 11.0 0.00 0.00 0.00 13 867.7
20210803003307 90 294 3.0 8.0 0.00 0.00 0.00 12 867.7
20210803001636 92 298 3.0 8.0 0.00 0.00 0.00 11 867.8
20210803000255 93 286 1.0 6.0 0.00 0.00 0.00 13 867.8
20210803000014 93 221 2.0 6.0 0.00 0.00 0.00 14 867.7
20210802233152 94 298 2.0 10.0 0.00 0.00 0.00 13 867.7
20210802231749 95 249 1.0 7.0 0.00 0.00 0.00 13 867.7
20210802230212 94 263 1.0 6.0 0.00 0.00 0.00 14 867.8
20210802223049 95 161 1.0 8.0 0.00 0.00 0.00 15 868.0
20210802221543 96 223 1.0 8.0 0.00 0.00 0.00 15 868.0
20210802220106 95 284 2.0 7.0 0.00 0.00 0.00 16 868.1
20210802213137 94 256 1.0 8.0 0.00 0.00 0.00 16 868.3
20210802211619 94 296 2.0 8.0 0.00 0.00 0.00 15 868.3
20210802210132 93 296 2.0 8.0 0.00 0.00 0.00 15 868.4
20210802204605 96 298 2.0 5.0 0.00 0.00 0.00 13 868.6
20210802203125 95 294 2.0 5.0 0.00 0.00 0.00 14 868.7
20210802200051 92 251 2.0 7.0 0.00 0.00 0.00 14 868.8
20210802194616 92 292 1.0 4.0 0.00 0.00 0.00 16 868.9
20210802193148 93 295 2.0 7.0 0.00 0.00 0.00 15 869.0
20210802190045 91 273 1.0 5.0 0.00 0.00 0.00 17 869.0
20210802184611 91 234 0.0 4.0 0.00 0.00 0.00 17 869.2
20210802183026 91 249 1.0 3.0 0.00 0.00 0.00 17 869.3
20210802180010 89 230 1.0 5.0 0.00 0.00 0.00 17 869.3
20210802174509 88 293 1.0 4.0 0.00 0.00 0.00 16 869.4
20210802170358 85 311 0.0 3.0 0.00 0.00 0.00 16 869.5
20210802164648 84 311 0.0 5.0 0.00 0.00 0.00 16 869.5
20210802163142 83 317 1.0 5.0 0.00 0.00 0.00 18 869.4
20210802160106 79 76 0.0 2.0 0.00 0.00 0.00 20 869.7
20210802154531 76 76 0.0 1.0 0.00 0.00 0.00 23 869.8
20210802153046 74 78 0.0 2.0 0.00 0.00 0.00 24 869.7
20210802150040 72 78 0.0 2.0 0.00 0.00 0.00 27 869.6
20210802144534 70 78 0.0 2.0 0.00 0.00 0.00 26 869.6
20210802143036 70 78 1.0 2.0 0.00 0.00 0.00 26 869.5
20210802140035 70 78 1.0 3.0 0.00 0.00 0.00 25 869.3
20210802134524 70 78 1.0 2.0 0.00 0.00 0.00 24 869.3